Location: Unspecified
(48.2082°N, 0.0000°E)
Time: 20:41:52
(UTC+00:00)

Vanguard 1 - Pass Details

Date: 29 June 2019
Orbit: 653 x 3830 km, 34.3° (Epoch: 17 July)

Event Time Altitude Azimuth Distance (km) Brightness Sun altitude
Rises 22:59:02 0° 211° (SSW) 7,801 14.2 -17.1°
Reaches altitude 10° 23:05:14 10° 202° (SSW) 6,905 13.9 -17.4°
Maximum altitude 23:23:53 33° 150° (SSE) 4,918 13.1 -18.0°
Drops below altitude 10° 23:38:41 10° 96° (E) 5,544 13.8 -18.4°
Sets 23:42:51 0° 87° (E) 6,152 14.1 -18.4°
